Location: USNO
(38.9242°N, 77.0663°W)
Time: 14:54:10
(UTC-05:00)

Tiangong 1 - Pass Details

Date: 07 October 2017
Orbit: 275 x 301 km, 42.8° (Epoch: 15 December)

Event Time Altitude Azimuth Distance (km) Brightness Sun altitude
Rises 20:11:44 0° 271° (W) 2,057 6.4 -18.4°
Reaches altitude 10° 20:13:49 10° 280° (W) 1,211 4.8 -18.8°
Enters shadow 20:16:08 37° 335° (NNW) 504 1.9 -19.3°
